Location: Unspecified
(0.0000°N, 0.0000°E)
Time: 01:48:56
(UTC+00:00)

Courier 1B - Visible Passes

Search period start: 17 October 2017 00:00
Search period end: 27 October 2017 00:00
Orbit: 963 x 1209 km, 28.3° (Epoch: 16 October)

Date Brightness Start Highest point End Pass type
(mag) Time Alt. Az. Time Alt. Az. Time Alt. Az.
17 Oct 9.0 19:49:14 10° SSW 19:53:11 24° S 19:53:11 24° S visible
18 Oct 9.2 18:56:21 10° SSW 19:00:38 18° SSE 19:02:55 15° SE visible
18 Oct 9.8 20:48:22 10° SW 20:49:50 18° SW 20:49:50 18° SW visible
19 Oct 9.5 18:03:52 10° S 18:06:39 13° SSE 18:09:27 10° SE visible
19 Oct 8.4 19:54:56 10° SW 19:59:36 39° S 19:59:36 39° S visible
20 Oct 8.4 19:01:40 10° SSW 19:07:23 32° SSE 19:09:23 27° ESE visible
20 Oct 9.8 20:54:55 10° WSW 20:56:17 17° WSW 20:56:17 17° WSW visible
21 Oct 10.0 04:43:04 10° N 04:45:21 11° NNE 04:47:38 10° NE visible
21 Oct 8.9 18:08:33 10° SSW 18:13:33 23° SSE 18:18:35 10° ESE visible
21 Oct 8.0 20:01:11 10° WSW 20:06:07 55° SW 20:06:07 55° SW visible
22 Oct 7.6 19:07:35 10° SW 19:13:58 60° SSE 19:15:58 43° E visible
22 Oct 10.0 21:02:06 10° W 21:02:53 13° W 21:02:53 13° W visible
23 Oct 9.8 04:47:19 10° NNW 04:52:28 19° NNE 04:57:38 10° ENE visible
23 Oct 8.1 18:14:08 10° SW 18:20:14 42° SSE 18:25:49 12° E visible
23 Oct 8.4 20:07:59 10° WSW 20:12:44 43° WNW 20:12:44 43° WNW visible
24 Oct 9.9 03:54:34 10° N 03:58:11 14° NNE 04:01:56 10° NE visible
24 Oct 7.5 19:14:04 10° WSW 19:20:31 73° NNW 19:22:35 45° NE visible
25 Oct 10.1 03:04:22 10° NNE 03:04:22 10° NNE 03:04:41 10° NNE visible
25 Oct 9.3 04:52:35 10° NNW 04:59:15 31° NNE 05:06:00 10° E visible
25 Oct 7.5 18:20:18 10° WSW 18:26:47 80° SSE 18:32:28 14° ENE visible
25 Oct 9.1 20:15:31 10° W 20:19:23 25° NW 20:19:23 25° NW visible
26 Oct 9.5 04:01:05 15° NNW 04:05:07 23° NNE 04:11:02 10° ENE visible
26 Oct 8.4 19:21:09 10° W 19:27:06 38° NNW 19:29:15 30° N visible
